Flag for Angola Weather past 2 weeks in Luanda, Angola

Now
81 °F

Passing clouds.


Feels Like: 86 °F
Forecast: 77 / 86 °F
Wind: 3 mph from North

Location: Luanda Airport

Current Time: May 7, 2015 at 12:38:45 AM

Latest Report: May 7, 2015 at 12:00 AM


Visibility: N/A

Pressure: 29.92 "Hg

Humidity: 84%

Dew point: 75 °F

Location of LuandaLocation

Historic Weather in Luanda — Graph

°F

Luanda temperature yesterday

Maximum temperature yesterday: 86 °F (at 2:00 PM)
Minimum temperature yesterday: 79 °F (at 12:00 AM)
Average temperature yesterday: 81 °F

Past Weeks' High & Low Weather Summary

 TemperatureHumidityPressure
High90 °F (Apr 23, 1:00 PM)94% (Apr 21, 11:00 PM)30.04 "Hg (Apr 21, 11:00 PM)
Low75 °F (Apr 21, 11:00 PM)59% (Apr 30, 10:00 AM)29.74 "Hg (May 2, 3:00 PM)
Average81 °F80%29.86 "Hg
* Reported Apr 21 11:00 PM — May 6 11:00 PM, Luanda, Weather by CustomWeather, © 2015

Note: Actual official high and low records may vary slightly from our data, if they occured in-between our weather recording intervals... More about our weather records

Advertising

Luanda weather history for previous 24 hours

 ConditionsComfort  
Time TempWeatherWind HumidityBarometerVisibility
11:00 PM
Wed, May 6
81 °FPassing clouds.5 mph84%29.92 "HgN/A
10:00 PM81 °FPassing clouds.9 mph84%29.92 "HgN/A
9:00 PM81 °FPassing clouds.6 mph84%29.89 "HgN/A
8:00 PM81 °FPassing clouds.6 mph84%29.86 "HgN/A
7:00 PM81 °FPassing clouds.9 mph84%29.83 "HgN/A
6:00 PM81 °FPassing clouds.9 mph84%29.80 "HgN/A
5:00 PM84 °FScattered clouds.10 mph74%29.80 "HgN/A
4:00 PM86 °FPartly sunny.12 mph70%29.80 "HgN/A
3:00 PM84 °FPartly sunny.12 mph74%29.83 "HgN/A
2:00 PM86 °FPartly sunny.10 mph70%29.83 "HgN/A
11:00 AM84 °FPartly sunny.3 mph74%29.89 "HgN/A
10:00 AM84 °FBroken clouds.5 mph70%29.92 "HgN/A
8:00 AM81 °FBroken clouds.5 mph84%29.89 "HgN/A
5:00 AM79 °FPassing clouds.3 mph89%29.83 "HgN/A
4:00 AM79 °FPassing clouds.3 mph89%29.83 "HgN/A
3:00 AM79 °FPassing clouds.5 mph89%29.83 "HgN/A
2:00 AM79 °FPassing clouds.7 mph89%29.83 "HgN/A
1:00 AM79 °FPassing clouds.7 mph89%29.86 "HgN/A
12:00 AM79 °FPassing clouds.6 mph89%29.86 "HgN/A
Weather by CustomWeather, © 2015

See weather overviewHow to use our weather pages